Regional Weather Roundup
Issued by NWS Austin/San Antonio, TX

Current Version | Previous Version | Text Only | Print | Product List | Glossary On
Versions: 1 2 3 4 5 6 7 8 9 10 11 12 13 14 15 16 17 18 19 20 21 22 23 24 25 26 27 28 29 30 31 32 33 34 35 36 37 38 39 40 41 42 43 44 45 46 47 48 49 50
000
ASUS44 KEWX 040601
RWREWX
SOUTH TEXAS REGIONAL WEATHER ROUNDUP
NATIONAL WEATHER SERVICE AUSTIN/SAN ANTONIO TX
100 AM CDT TUE OCT 04 2022

NOTE: "FAIR" INDICATED FEW OR NO CLOUDS BELOW 12,000 FEET WITH NO
SIGNIFICANT WEATHER AND/OR OBSTRUCTIONS TO VISIBILITY.

* - THESE STATIONS ARE NOT NWS OR FAA STATIONS...AND ARE NOT SUBJECT
    TO NWS AND FAA QUALITY CONTROL.

TXZ171-172-183>190-040700-
TEXAS HILL COUNTRY AND EDWARDS PLATEAU

CITY           SKY/WX    TMP DP  RH WIND       PRES   REMARKS
JUNCTION       CLEAR     59  42  53 CALM      30.14F
6HR MIN TEMP:  59; 6HR MAX TEMP:  83;

*LLANO         MOCLDY    59  41  51 N3        30.12S
BURNET         PTCLDY    64  42  44 N3        30.14S
6HR MIN TEMP:  64; 6HR MAX TEMP:  80;

*HORSESHOE BAY PTCLDY    61  41  48 CALM      30.12F
6HR MIN TEMP:  61; 6HR MAX TEMP:  80;

*LAGO VISTA      N/A     65  37  35 E3        30.12S
6HR MIN TEMP:  65; 6HR MAX TEMP:  77;

*KERRVILLE     MOCLDY    60  46  60 CALM      30.13F
6HR MIN TEMP:  60; 6HR MAX TEMP:  79;

*FREDERICKSBRG PTCLDY    60  43  53 NW3       30.14S
*ROCKSPRINGS   CLEAR     64  48  55 SE5       30.19S
*BOERNE        CLOUDY    61  43  51 CALM      30.12F
HONDO          MOCLDY    64  45  49 NE5       30.09F
6HR MIN TEMP:  64; 6HR MAX TEMP:  80;

*UVALDE        MOCLDY    64  49  58 NE5       30.11F
6HR MIN TEMP:  63; 6HR MAX TEMP:  79;

DEL RIO        CLEAR     68  53  58 E5        30.08S
6HR MIN TEMP:  68; 6HR MAX TEMP:  79;

*LAUGHLIN AFB  CLEAR     63  53  70 NE5       30.06F
6HR MIN TEMP:  63; 6HR MAX TEMP:  78;

*SPOFFORD      MOCLDY    65  53  65 N3        30.07F
6HR MIN TEMP:  65; 6HR MAX TEMP:  78;

CARRIZO SPRGS  MOCLDY    70  50  49 S3        30.07F
*FAITH RANCH   CLEAR     70  54  56 SE6       30.09F
$$

TXZ173-191>194-202-209-217>225-228-040700-
CENTRAL AND SOUTH CENTRAL TEXAS

CITY           SKY/WX    TMP DP  RH WIND       PRES   REMARKS
GEORGETOWN     MOCLDY    61  45  55 CALM      30.12F
6HR MIN TEMP:  60; 6HR MAX TEMP:  82;

*TAYLOR        MOCLDY    57  48  71 CALM      30.09F
AUSTIN/BERGSTM MOCLDY    62  49  62 CALM      30.09F
6HR MIN TEMP:  60; 6HR MAX TEMP:  78;

AUSTIN/MABRY   MOCLDY    65  48  54 CALM      30.10F
6HR MIN TEMP:  65; 6HR MAX TEMP:  83;

*PFLUGERVILLE  MOCLDY    68  41  37 N3        30.08F
SAN MARCOS     CLOUDY   N/A N/A N/A CALM        N/A
NEW BRAUNFELS  CLOUDY    69  45  41 NW3       30.08S
6HR MIN TEMP:  69; 6HR MAX TEMP:  82;

*RANDOLPH AFB  CLOUDY    69  45  41 N5        30.06F
6HR MIN TEMP:  68; 6HR MAX TEMP:  80; 6HR PCP: TRACE;

*SEGUIN        CLOUDY    67  46  46 CALM      30.06F
6HR MIN TEMP:  67; 6HR MAX TEMP:  81;

SAN ANTONIO    CLOUDY    70  49  47 NW5       30.10S
6HR MIN TEMP:  70; 6HR MAX TEMP:  83;

STINSON FIELD  CLOUDY    70  50  49 CALM      30.07S
6HR MIN TEMP:  68; 6HR MAX TEMP:  82;

*KELLY FIELD   CLOUDY    68  47  46 CALM      30.06F
6HR MIN TEMP:  67; 6HR MAX TEMP:  82;

*PLEASANTON    CLOUDY    67  53  59 CALM      30.09F
*KENEDY        CLOUDY    66  53  63 CALM      30.09S
*LA GRANGE     NOT AVBL
*GIDDINGS      MOCLDY    65  46  50 CALM      30.09S
6HR MIN TEMP:  64; 6HR MAX TEMP:  79;

*GONZALES      MOCLDY    70  46  42 CALM      30.08F
$$

TXZ163>164-176>182-195>201-210>213-226-227-235-040700-
SOUTHEAST TEXAS

CITY           SKY/WX    TMP DP  RH WIND       PRES   REMARKS
COLLEGE STN      N/A     71  47  42 NE7       30.08F
6HR MIN TEMP:  66; 6HR MAX TEMP:  83;

*BRYAN         MOCLDY    69  46  43 E3        30.11S
*CALDWELL      MOCLDY    63  49  61 CALM      30.09S
*CROCKETT      MOCLDY    61  52  72 CALM      30.10S
*BRENHAM       MOCLDY    66  50  57 CALM        N/A
HUNTSVILLE     MOCLDY    67  49  52 CALM      30.08F
6HR MIN TEMP:  67; 6HR MAX TEMP:  82;

CONROE         MOCLDY    60  53  77 CALM      30.09F
6HR MIN TEMP:  60; 6HR MAX TEMP:  76;

HOUSTON BUSH   MOCLDY    69  55  60 N6        30.07S
6HR MIN TEMP:  63; 6HR MAX TEMP:  78;

HOUSTON HOBBY  MOCLDY    72  53  51 CALM      30.06S
6HR MIN TEMP:  71; 6HR MAX TEMP:  84;

*HOUSTON SW AP NOT AVBL
PEARLAND       PTCLDY    65  58  78 CALM      30.07F
6HR MIN TEMP:  65; 6HR MAX TEMP:  79;

HOUSTON HOOKS  PTCLDY    63  54  72 NE3       30.08R
6HR MIN TEMP:  62; 6HR MAX TEMP:  78;

ELLINGTON FLD  CLEAR     66  57  72 CALM      30.05F
SUGAR LAND     PTCLDY    63  55  75 CALM      30.06F
6HR MIN TEMP:  62; 6HR MAX TEMP:  80;

*HOUSTON EXEC  PTCLDY    64  55  72 CALM      30.08F
*CLEVELAND MUN NOT AVBL
*WHARTON       MOCLDY    65  53  64 CALM      30.07F
6HR MIN TEMP:  64; 6HR MAX TEMP:  80;

*COLUMBUS      FAIR      61  48  62 CALM      30.09S
6HR MIN TEMP:  60; 6HR MAX TEMP:  80;

*EAGLE LAKE    MOCLDY    64  51  64 CALM      30.07S
$$

TXZ214>216-236>238-040700-
THE UPPER TEXAS COAST

CITY           SKY/WX    TMP DP  RH WIND       PRES   REMARKS
*ORANGE        PTCLDY    64  58  82 CALM      30.09F
PORT ARTHUR    PTCLDY    63  56  78 CALM      30.06F
6HR MIN TEMP:  63; 6HR MAX TEMP:  76;

GALVESTON      MOCLDY    74  67  78 W3        30.06F
6HR MIN TEMP:  72; 6HR MAX TEMP:  76;

ANGLETON       PTCLDY    62  59  90 CALM      30.06F
6HR MIN TEMP:  61; 6HR MAX TEMP:  74;

*BAY CITY      MOCLDY    63  59  87 CALM      30.07F
PALACIOS       MOCLDY    69  62  78 CALM      30.06F
6HR MIN TEMP:  67; 6HR MAX TEMP:  77;

$$

TXZ229>234-239>247-040700-
TEXAS COASTAL BEND AND RIO GRANDE PLAINS

CITY           SKY/WX    TMP DP  RH WIND       PRES   REMARKS
VICTORIA       MOCLDY    69  59  70 W3        30.07F
6HR MIN TEMP:  67; 6HR MAX TEMP:  81;

*BEEVILLE      MOCLDY    65  58  76 CALM      30.06F
6HR MIN TEMP:  65; 6HR MAX TEMP:  77;

ROCKPORT       MOCLDY    71  65  81 CALM      30.06F
6HR MIN TEMP:  69; 6HR MAX TEMP:  79;

*PORT ARANSAS  MOCLDY   N/A N/A N/A N3        30.08F
*PORT LAVACA   NOT AVBL
*INGLESIDE     NOT AVBL
CORPUS CHRISTI CLOUDY    75  62  64 E5        30.05F
6HR MIN TEMP:  74; 6HR MAX TEMP:  83;

CORPUS NAS     NOT AVBL
*ROBSTOWN      MOCLDY    72  62  70 MISG      30.07S
ALICE          MOCLDY    68  64  87 S3        30.06F
6HR MIN TEMP:  67; 6HR MAX TEMP:  78;

KINGSVILLE NAS NOT AVBL
COTULLA        MOCLDY    68  50  52 CALM      30.08S
6HR MIN TEMP:  68; 6HR MAX TEMP:  82;

LAREDO         MOCLDY    73  58  59 NE5       30.07S
6HR MIN TEMP:  73; 6HR MAX TEMP:  80;

$$

TXZ248>255-040700-
DEEP SOUTH TEXAS

CITY           SKY/WX    TMP DP  RH WIND       PRES   REMARKS
BROWNSVILLE    PTCLDY    71  66  84 CALM      30.04F
6HR MIN TEMP:  71; 6HR MAX TEMP:  79;

PORT ISABEL    PTCLDY    77  65  66 E6        30.04F
6HR MIN TEMP:  75; 6HR MAX TEMP:  79;

HARLINGEN      MOCLDY    73  65  75 W3        30.05S
6HR MIN TEMP:  70; 6HR MAX TEMP:  79;

*HEBBRONVILLE  MOCLDY    70  62  77 NE5       30.08F
MCALLEN        MOCLDY    74  62  66 CALM      30.07S
6HR MIN TEMP:  73; 6HR MAX TEMP:  83;

*WESLACO       MOCLDY    72  64  74 CALM      30.06S
FALFURRIAS     MOCLDY    71  67  85 S3        30.06S
EDINBURG       PTCLDY    71  66  84 CALM      30.07S
*ZAPATA        PTCLDY    75  62  65 S3        30.08S
6HR MIN T


USA.gov is the U.S. government's official web portal to all federal, state and local government web resources and services.